Location: Gökben Yaylas?
(36.8988°N, 29.6291°E)
Time: 10:55:31
(UTC+00:00)

Okean 2 Rocket - Pass Details

Date: 15 May 2026
Orbit: 611 x 634 km, 82.5° (Epoch: 6 June)

Event Time Altitude Azimuth Distance (km) Brightness Sun altitude
Rises 17:52:25 0° 201° (SSW) 2,910 6.4 -9.6°
Reaches altitude 10° 17:54:44 10° 208° (SSW) 2,009 5.6 -10.0°
Maximum altitude 17:58:59 43° 280° (W) 893 4.4 -10.7°
Drops below altitude 10° 18:03:16 10° 353° (N) 2,024 6.3 -11.4°
Sets 18:05:37 0° 360° (N) 2,936 7.1 -11.8°
